Weather History for KELY - January, 2013

Change the Weather History Date:

Wednesday, January 23, 2013

  Actual Average Record
Temperature  
Mean Temperature 34 °F 26 °F  
Max Temperature 48 °F 40 °F 59 °F (1970)
Min Temperature 20 °F 12 °F -23 °F (1962)
Degree Days  
Heating Degree Days 31 39  
Month to date heating degree days 1183 918  
Since 1 July heating degree days 3821 4018  
Cooling Degree Days 0 0  
Month to date cooling degree days 0 0  
Year to date cooling degree days 0 0  
Moisture  
Dew Point 19 °F    
Average Humidity 48    
Maximum Humidity 62    
Minimum Humidity 33    
Precipitation  
Precipitation 0.00 in 0.02 in 0.60 in (1943)
Month to date precipitation 0.25 0.52  
Year to date precipitation 0.25 0.52  
Snow  
Snow 0.00 in 0.30 in 4.50 in (1909)
Month to date snowfall 4.9 6.9  
Since 1 July snowfall 38.7 24.8  
Snow Depth 8.00 in    
Sea Level Pressure  
Sea Level Pressure 30.22 in    
Wind  
Wind Speed 13 mph (SSW)    
Max Wind Speed 21 mph    
Max Gust Speed 25 mph    
Visibility 10 miles    
Events      
T = Trace of Precipitation, MM = Missing Value Source: NWS Daily Summary

Daily Weather History Graph

Daily Weather History Graph

Search for Another Location

Airport or City:

Trip Planner

Search our weather history database for the weather conditions in past years. The results will help you decide how hot, cold, wet, or windy it might be!

Date:

Astronomy

Jan. 23, 2013 Rise Set
Actual Time 6:53 AM PST 4:49 PM PST
Civil Twilight 6:24 AM PST 5:18 PM PST
Nautical Twilight 5:51 AM PST 5:51 PM PST
Astronomical Twilight 5:19 AM PST 6:23 PM PST
Moon 2:04 PM PST (1/23) 4:07 AM PST (1/23)
Length of Visible Light 10h 54m
Length of Day
9h 56m
Waxing Gibbous, 90% of the Moon is Illuminated
Jan 23
Waxing Gibbous
Jan 26
Full
Feb 3
Last Quarter
Feb 9
New
Feb 17
First Quarter

Hourly Weather History & Observations

Time (PST) Temp. Windchill Dew Point Humidity Pressure Visibility Wind Dir Wind Speed Gust Speed Precip Events Conditions
12:53 AM 21.0 °F 7.1 °F 10.0 °F 63% 30.27 in 10.0 mi South 16.1 mph - N/A   Clear
1:53 AM 30.9 °F 19.4 °F 12.9 °F 47% 30.22 in 10.0 mi SSW 17.3 mph - N/A   Clear
2:53 AM 28.9 °F 16.9 °F 12.0 °F 49% 30.22 in 10.0 mi SSW 17.3 mph - N/A   Clear
3:53 AM 21.0 °F 8.6 °F 10.0 °F 63% 30.24 in 10.0 mi South 12.7 mph - N/A   Clear
4:53 AM 23.0 °F 12.4 °F 10.9 °F 60% 30.27 in 10.0 mi South 10.4 mph - N/A   Clear
5:53 AM 28.0 °F 17.0 °F 12.9 °F 53% 30.27 in 10.0 mi South 13.8 mph - N/A   Clear
6:53 AM 35.1 °F 24.8 °F 14.0 °F 42% 30.24 in 10.0 mi SSW 17.3 mph - N/A   Clear
7:53 AM 30.0 °F 19.5 °F 14.0 °F 51% 30.30 in 10.0 mi SSW 13.8 mph - N/A   Clear
8:53 AM 37.9 °F 30.9 °F 14.0 °F 38% 30.28 in 10.0 mi SSW 10.4 mph 17.3 mph N/A   Clear
9:53 AM 41.0 °F 32.8 °F 16.0 °F 36% 30.28 in 10.0 mi SSW 16.1 mph - N/A   Clear
10:53 AM 45.0 °F 37.1 °F 17.1 °F 33% 30.27 in 10.0 mi South 19.6 mph - N/A   Clear
11:53 AM 44.1 °F 39.5 °F 23.0 °F 43% 30.25 in 10.0 mi SSW 8.1 mph - N/A   Clear
12:53 PM 46.0 °F 41.0 °F 21.9 °F 39% 30.21 in - SSW 10.4 mph - N/A   Clear
1:53 PM 42.8 °F 39.3 °F 24.8 °F 49% 30.21 in - SSW 5.8 mph 16.1 mph N/A   Clear
2:53 PM 46.0 °F 41.0 °F 23.0 °F 40% 30.15 in 10.0 mi South 10.4 mph - N/A   Clear
3:53 PM 44.1 °F 37.7 °F 23.0 °F 43% 30.20 in 10.0 mi South 12.7 mph - N/A   Scattered Clouds
4:53 PM 39.9 °F 32.9 °F 26.1 °F 58% 30.21 in 10.0 mi SSW 11.5 mph - N/A   Mostly Cloudy
5:53 PM 39.9 °F 32.1 °F 26.1 °F 58% 30.19 in 10.0 mi South 13.8 mph - N/A   Scattered Clouds
6:53 PM 39.9 °F 31.4 °F 26.1 °F 58% 30.17 in 10.0 mi South 16.1 mph - N/A   Clear
7:53 PM 41.0 °F 33.1 °F 25.0 °F 53% 30.18 in 10.0 mi SSW 15.0 mph - N/A   Overcast
8:53 PM 39.9 °F 32.1 °F 26.1 °F 58% 30.16 in 10.0 mi SSW 13.8 mph - N/A   Overcast
9:53 PM 39.9 °F 33.4 °F 26.1 °F 58% 30.14 in 10.0 mi South 10.4 mph - N/A   Overcast
10:53 PM 39.0 °F 30.3 °F 27.0 °F 62% 30.13 in 10.0 mi South 16.1 mph - N/A   Overcast
11:53 PM 39.0 °F 31.4 °F 26.1 °F 60% 30.13 in 10.0 mi South 12.7 mph - N/A   Mostly Cloudy